Location: Allie Creek
(37.5926°N, 89.8526°W)
Time: 10:16:11
(UTC+00:00)

Cosmos 1933 Rocket - Pass Details

Date: 26 September 2023
Orbit: 605 x 626 km, 82.5° (Epoch: 09 December)

Event Time Altitude Azimuth Distance (km) Brightness Sun altitude
Rises 00:34:27 0° 163° (SSE) 2,884 6.8 -9.2°
Reaches altitude 10° 00:36:51 10° 153° (SSE) 1,980 5.8 -9.7°
Maximum altitude 00:40:44 31° 91° (E) 1,079 4.3 -10.5°
Drops below altitude 10° 00:44:36 10° 28° (NNE) 1,981 5.9 -11.2°
Sets 00:47:00 0° 19° (NNE) 2,887 6.9 -11.7°
